Location: *
(1.3500°S, 147.5000°W)
Time: 02:42:30
(UTC+00:00)

Envisat - Pass Details

Date: 27 June 2021
Orbit: 764 x 766 km, 98.2° (Epoch: 03 August)

Event Time Altitude Azimuth Distance (km) Brightness Sun altitude
Rises 14:58:33 0° 6° (N) 3,212 6.7 -13.1°
Reaches altitude 10° 15:00:51 10° 3° (N) 2,289 5.8 -12.5°
Maximum altitude 15:05:51 64° 282° (WNW) 840 3.0 -11.4°
Drops below altitude 10° 15:10:52 10° 201° (SSW) 2,299 5.1 -10.2°
Sets 15:13:12 0° 197° (SSW) 3,228 5.8 -9.7°
